Location: site
(53.0000°N, 23.0500°E)
Time: 05:19:26
(UTC+01:00)

SAOCOM 1-A - Visible Passes

Search period start: 03 December 2020 00:00
Search period end: 13 December 2020 00:00
Orbit: 621 x 623 km, 97.9° (Epoch: 02 December)

Date Brightness Start Highest point End Pass type
(mag) Time Alt. Az. Time Alt. Az. Time Alt. Az.
03 Dec ? 04:14:05 10° SE 04:18:19 54° ENE 04:19:21 43° NNE visible
03 Dec ? 05:51:28 10° SW 05:54:48 21° W 05:56:33 17° WNW visible
03 Dec ? 17:35:59 45° ESE 17:35:59 45° ESE 17:39:49 10° S visible
03 Dec ? 19:13:12 21° W 19:13:12 21° W 19:15:13 10° WSW visible
04 Dec ? 02:58:38 10° E 03:00:14 14° ENE 03:00:14 14° ENE visible
04 Dec ? 04:31:58 10° SSE 04:36:19 79° ENE 04:37:26 49° N visible
04 Dec ? 06:10:31 10° WSW 06:13:02 15° W 06:14:38 13° WNW visible
04 Dec ? 17:54:14 61° SE 17:54:14 61° SE 17:58:03 10° S visible
04 Dec ? 19:31:27 15° W 19:31:27 15° W 19:32:34 10° WSW visible
05 Dec ? 03:15:38 10° E 03:18:18 18° ENE 03:18:18 18° ENE visible
05 Dec ? 04:50:01 10° S 04:54:20 73° WSW 04:55:31 47° NNW visible
05 Dec ? 06:30:42 10° W 06:31:19 10° W 06:31:58 10° WNW visible
05 Dec ? 16:35:15 14° E 16:35:15 14° E 16:37:20 10° ESE visible
05 Dec ? 18:12:28 62° SSW 18:12:28 62° SSW 18:16:06 10° SSW visible
06 Dec ? 03:32:56 10° ESE 03:36:24 25° ENE 03:36:24 25° ENE visible
06 Dec ? 05:08:12 10° S 05:12:24 49° W 05:13:36 38° NW visible
06 Dec ? 16:53:29 20° E 16:53:29 20° E 16:56:28 10° SE visible
06 Dec ? 18:30:42 46° WSW 18:30:42 46° WSW 18:34:01 10° SSW visible
07 Dec ? 03:50:27 10° SE 03:54:22 34° ENE 03:54:30 34° ENE visible
07 Dec ? 05:26:35 10° SSW 05:30:32 34° W 05:31:42 29° WNW visible
07 Dec ? 17:11:43 28° ESE 17:11:43 28° ESE 17:15:12 10° SSE visible
07 Dec ? 18:48:56 32° WSW 18:48:56 32° WSW 18:51:46 10° SW visible
08 Dec ? 04:08:08 10° SE 04:12:18 48° ENE 04:12:36 47° NE visible
08 Dec ? 05:45:10 10° SSW 05:48:43 24° W 05:49:49 22° WNW visible
08 Dec ? 17:29:57 40° ESE 17:29:57 40° ESE 17:33:41 10° S visible
08 Dec ? 19:07:10 23° W 19:07:10 23° W 19:09:22 10° WSW visible
09 Dec ? 02:53:03 10° ENE 02:53:30 11° ENE 02:53:30 11° ENE visible
09 Dec ? 04:25:57 10° SSE 04:30:16 69° ENE 04:30:43 64° NNE visible
09 Dec ? 06:04:04 10° SW 06:06:55 17° W 06:07:55 16° WNW visible
09 Dec ? 17:48:10 55° SE 17:48:10 55° SE 17:51:57 10° S visible
09 Dec ? 19:25:22 16° W 19:25:22 16° W 19:26:47 10° WSW visible
10 Dec ? 03:09:53 10° E 03:11:36 16° ENE 03:11:36 16° ENE visible
10 Dec ? 04:43:57 10° SSE 04:48:18 82° WSW 04:48:49 67° NW visible
10 Dec ? 06:23:35 10° WSW 06:25:11 12° W 06:26:02 11° WNW visible
10 Dec ? 16:29:09 12° E 16:29:09 12° E 16:30:46 10° ESE visible
10 Dec ? 18:06:22 64° S 18:06:22 64° S 18:10:04 10° SSW visible
10 Dec ? 19:43:36 11° W 19:43:36 11° W 19:43:57 10° W visible
11 Dec ? 03:27:07 10° ESE 03:29:44 21° ENE 03:29:44 21° ENE visible
11 Dec ? 05:02:04 10° S 05:06:20 56° W 05:06:56 51° WNW visible
11 Dec ? 16:47:22 18° E 16:47:22 18° E 16:50:07 10° SE visible
11 Dec ? 18:24:35 52° SW 18:24:35 52° SW 18:28:02 10° SSW visible
12 Dec ? 03:44:34 10° SE 03:47:50 30° ENE 03:47:50 30° ENE visible
12 Dec ? 05:20:24 10° SSW 05:24:27 38° W 05:25:03 36° WNW visible
12 Dec ? 17:05:34 25° E 17:05:34 25° E 17:08:57 10° SSE visible
12 Dec ? 18:42:47 37° WSW 18:42:47 37° WSW 18:45:50 10° SW visible
